Regional Weather Roundup
Issued by NWS

Home | Current Version | Previous Version | Text Only | Print | Product List | Glossary On
Versions: 1 2 3 4 5 6 7 8 9 10 11 12 13 14 15 16 17 18 19 20 21 22 23 24 25 26 27
000
ASCA42 TJSJ 251510
RWRPR
PUERTO RICO/U.S. VIRGIN ISLANDS HOURLY WEATHER ROUNDUP
NATIONAL WEATHER SERVICE SAN JUAN PR
1100 AM AST TUE APR 25 2017

PRZ001>002-007>008-010-251600-
PUERTO RICO

CITY           SKY/WX    TMP DP  RH WIND       PRES   REMARKS
SAN JUAN LMM   MOSUNNY   90  75  62 SE14G21   29.96S HX 100
AGUADILLA      MOSUNNY   84  73  70 NW5       29.98R HX  91
CEIBA          SUNNY     86  75  70 S15       30.00S HX  95
$$

VIZ001>002-251600-
U.S. VIRGIN ISLANDS

CITY           SKY/WX    TMP DP  RH WIND       PRES   REMARKS
CHARLOTTE AMA  PTSUNNY   82  75  78 SE17      29.97F
CHRISTIANSTED  MOSUNNY   84  77  79 SE14      29.99F HX  94
$$

HOURLY WEATHER ROUNDUP FOR THE NEWS MEDIA

CITY           SKY/WX    TMP DP  RH WIND       PRES   REMARKS
ORLANDO        PTSUNNY   71  54  54 W14       29.86R
NEW YORK       LGT RAIN  55  53  93 NE20      30.09S FOG
NEWARK         LGT RAIN  53  50  89 NE13      30.09S
CHICAGO        PTSUNNY   68  49  50 S10       29.69F
HARTFORD       CLOUDY    51  48  89 NE12G23   30.21F
BOSTON         CLOUDY    48  43  82 NE20G28   30.29S
DALLAS         MOSUNNY   73  60  63 S18       29.56F
PHILADELPHIA   CLOUDY    55  52  89 NE17G26   29.98
LOS ANGELES    PTSUNNY   66  43  43 NE7       29.88R
WASHINGTON DC  LGT RAIN  57  54  89 NE13G22   29.84F



USA.gov is the U.S. government's official web portal to all federal, state and local government web resources and services.